DMSP 5D-2 F13 DEB, 40612

Orbit data source: Space-Track

DMSP 5D-2 F13 DEB, 40612 is space debris in SSO originally from a launch on Fri, 24 Mar 1995 UTC launched from the Air Force Western Test Range (AFWTR). Debris objects in space refer to the collection of defunct objects orbiting the Earth. Examples of debris include non-operational satellites, rocket bodies, and fragments generated from explosions, collisions, or faulty payload assembly.

Loading next visibility...
Identifier
40612, 1995-015FK
Orbit
SSO
Country
Flag of USUS
Related business
Manufacturer
Unknown
Mission
Spacecraft
Bus & Motor
Unknown
Mass
Unknown
Launch date (UTC)
1995-03-24 (31 years ago)
Launch vehicle
Unknown
Launch site
Air Force Western Test Range (AFWTR)
Object type
Payload
Rocket body
Debris
Shape & HBR
Unknown shape, 0.1 m
Radar Cross Section
Small (<0.1 m²)

Expand to show TLE details & history
Last TLE update: 1 day ago

TLE from 1 day ago
0 DMSP 5D-2 F13 DEB
1 40612U 95015FK  25297.02966825  .00006007  00000-0  20482-2 0  9997
2 40612  98.6973 327.6241 0005031  23.0927 337.0484 14.36795347545400
Epoch: 2025-10-24T00:42Z
TLE epoch observation values (Epoch: 2025-10-24T00:42:43.336Z)
Latitude
-0.00005°
Longitude
-75.73689°
Altitude
768.733 km
Speed
7.472 km/s
True Right ascension
21h 50m 29s
True Declination
0° 00' 00"
Sunlit
Object was in full shadow at epoch
Visualization orbit readout
Latitude
Unknown
Longitude
Unknown
Altitude
Unknown
Speed
Unknown
Apparent Right ascension
Unknown
Apparent Declination
Unknown
Sunlit
N/A
Visualization observer readout
Local Sidereal Time
04:05:50
Azimuth
Unknown
Elevation
Unknown
Doppler factor
Unknown
Orbital elements
Apogee altitude
769.836 km
Perigee altitude
762.648 km
Semi-major axis
7,144.379 km
Eccentricity
0.0005
Inclination
98.6973°
RAAN
327.6241°
Arg. of periapsis
23.0927°
True anomaly
337.02591°
Mean anomaly
337.0484°
Eccentric anomaly
337.03715°
Mean motion
3.59415 °/min
Orbital period
100.16 mins
BSTAR
0.0020482
Loading maneuver chart data...
Computing Atmospheric mass density...

Documentation

Showing up to 5 results
|